Hourly Data Report for July 11, 2021

KUGLUKTUK A
NUNAVUT
Current Station Operator: NAVCAN

67°49'00.000" N
115°08'38.000" W
22.60 m
2300903
71938
YCO

Download Data

Hourly Data (July 2021)
Hourly Data Report for July 11, 2021
TIME
LST
Temp Definition
°C
Dew Point Definition
°C
Rel Hum Definition
%
Precip. Amount Definition
mm

Wind Dir Definition
10's deg

Wind Spd Definition
km/h
Visibility Definition
km
Stn Press Definition
kPa
Hmdx Definition


Wind Chill Definition


Weather Definition


00:00 9.2 8.0 92   5 7 24.1 100.73     LegendNANA
01:00 8.7 7.7 94   10 5 24.1 100.70     LegendNANA
02:00 8.6 8.3 98   14 5 24.1 100.69     Mainly Clear
03:00 8.1 7.8 98   15 5 24.1 100.71     LegendNANA
04:00 7.8 7.5 98   9 12 0.0 100.72     Fog
05:00 7.7 7.4 98   9 14 0.2 100.69     Fog
06:00 8.0 7.8 98   12 9 0.4 100.68     Fog
07:00 8.3 8.1 98   7 4 0.8 100.67     Fog
08:00 8.9 8.4 97   3 6 0.4 100.64     Fog
09:00 10.1 8.5 90   2 4 24.1 100.62     LegendNANA
10:00 11.5 8.7 83   2 5 24.1 100.58     LegendNANA
11:00 14.3 9.6 73   11 10 24.1 100.54     Mainly Clear
12:00 17.6 10.3 62   13 10 24.1 100.53     LegendNANA
13:00 18.9 10.0 56   10 8 24.1 100.50     LegendNANA
14:00 17.7 9.6 58   6 12 24.1 100.49     Mainly Clear
15:00 19.0 10.0 56   11 12 24.1 100.48     LegendNANA
16:00 17.7 10.0 60   28 14 24.1 100.51     Rain Showers
17:00 19.8 9.3 50   19 11 24.1 100.46     Mainly Clear
18:00 20.5 8.6 46   19 13 24.1 100.44     LegendNANA
19:00 20.9 8.6 45   19 16 24.1 100.46     LegendNANA
20:00 19.9 8.3 47   19 13 24.1 100.44     Mainly Clear
21:00 17.1 9.9 62   33 42 24.1 100.52     LegendNANA
22:00 14.1 10.9 81   34 42 24.1 100.63     Rain Showers
23:00 10.9 8.4 85   34 35 24.1 100.73     Mainly Clear

Notes on Data Quality.

Legend

  • E = Estimated
  • M = Missing
  • NA = Not Available*
  • [empty] = Indicates an unobserved value
Date modified: